Showing default

KINEIS-1E, 60083

Orbit data source: Space-Track

KINEIS-1E, 60083 is a French payload satellite in SSO that was launched on Thu, 20 Jun 2024 UTC via an ELECTRON launch vehicle from the Rocket Lab Launch Complex (RLLC). Payload-class satellites include a variety of spacecraft equipped with specific instruments for various scientific and technological missions. These include communications satellites like Starlink; space stations such as the ISS; scientific satellites like the Hubble; Earth observation satellites from companies like Planet Labs, Umbra, and HawkEye 360; GPS; miniature CubeSats for education and research; and military/defense satellites.

Loading next visibility...
Identifier
60083, 2024-114E
Orbit
SSO
Country
Flag of FRFR
Related business
Manufacturer
KINEIS
Mission
Operational Commercial Communications
Bus & Motor
CUBESAT 16U, Unknown motor
Mass
28 kg wet, 28 kg dry
Launch date (UTC)
2024-06-20 (1 year ago)
Launch vehicle
ELECTRON
Launch site
Rocket Lab Launch Complex (RLLC)
Object type
Payload
Rocket body
Debris
Shape & HBR
Box + 2 Pan + 1 Ant, 1.0 m
Radar Cross Section
0.229 m², Medium (>0.1 m² and < 1m²)

Expand to show TLE details & history
Last TLE update: 10 hours ago

TLE from 10 hours ago
0 KINEIS-1E
1 60083U 24114E   25304.30246074  .00001536  00000-0  20997-3 0  9994
2 60083  98.0035 324.3448 0002296 109.3412 250.8048 14.79998899 73528
Epoch: 2025-10-31T07:15Z
TLE epoch observation values (Epoch: 2025-10-31T07:15:32.607Z)
Latitude
-0.00005°
Longitude
175.6101°
Altitude
632.875 km
Speed
7.542 km/s
True Right ascension
21h 37m 22s
True Declination
0° 00' 00"
Sunlit
Object was in daylight at epoch
Visualization orbit readout
Latitude
Unknown
Longitude
Unknown
Altitude
Unknown
Speed
Unknown
Apparent Right ascension
Unknown
Apparent Declination
Unknown
Sunlit
N/A
Visualization observer readout
Local Sidereal Time
13:25:47
Azimuth
Unknown
Elevation
Unknown
Doppler factor
Unknown
Orbital elements
Apogee altitude
627.981 km
Perigee altitude
624.765 km
Semi-major axis
7,004.51 km
Eccentricity
0.00023
Inclination
98.0035°
RAAN
324.3448°
Arg. of periapsis
109.3412°
True anomaly
250.77995°
Mean anomaly
250.8048°
Eccentric anomaly
250.79238°
Mean motion
3.70234 °/min
Orbital period
97.24 mins
BSTAR
0.00020997
Loading maneuver chart data...
Computing Atmospheric mass density...
Loading historical data...
Loading historical data...
Loading historical data...
Loading historical data...
Loading historical data...
Loading historical data...
Loading historical data...

Documentation

Showing up to 5 results
|